Content
SEND FEEDBACK

Daily
Averages
Monthly
Summary
United States of America

SHANNON, GEORGIA


Home > North America > United States > Georgia
Elevation: 640 feet     Latitude: 34 21N     Longitude: 085 10W

WEATHER
 
SELECT A DAY
Number of Records: 210,573;   Date Range: 1/1/95 - 7/22/14
 
SHARE

PRINT THIS DATA

[ ← Previous Day ]
WEATHER ALMANAC - FEBRUARY 13, 2013
[ Next Day → ]
[ °C ]   °F
Weather ElementAverageHighLow
Temperature45.1 °F48.9 °F (10:53 am)37.9 °F (9:53 pm)
Dewpoint41.6 °F46.9 °F (9:53 am)33.8 °F (8:02 pm)
Humidity87.9 %100 % (6:11 am)70 % (8:02 pm)
Barometer29.83 in30.01 in (11:25 pm)29.72 in (6:53 am)
Wind Speed5.6 mph15 mph (4:53 pm)
Wind Gust20.7 mph (4:53 pm)
Weather ElementAverage
Visibility7.2 mi
Wind DirectionS (182.6 °)

Weather ElementTotal
Precipitation0.12 in
Heating Degree Days21.6 (Base 65)
Averaged from 38 records on February 13, 2013
WEATHER CONDITIONS BREAKOUT
WIND DIRECTION BREAKOUT
WEATHER BY HOUR - FEBRUARY 13, 2013
[ °C ]   °F
Local TimeTemperatureDewpointHumidityBarometerVisibilityWind DirectionWind SpeedGust SpeedPrecipitationEventsConditions
1:53 AM46.0 °F43.0 °F89 %29.79 in10.0 miESE (120°)5.8 mph0.00 inOvercast
2:53 AM45.0 °F44.1 °F97 %29.79 in4.0 miCalm0.02 inRainLight Rain
3:53 AM45.0 °F44.1 °F97 %29.75 in5.0 miSE (130°)6.9 mph0.01 inOvercast
4:53 AM45.0 °F44.1 °F97 %29.73 in4.0 miSouth (170°)5.8 mph0.01 inOvercast
5:53 AM45.0 °F44.1 °F97 %29.74 in4.0 miSouth (180°)8.1 mphOvercast
6:11 AM44.6 °F44.6 °F100 %29.75 in2.5 miSouth (190°)6.9 mph0.01 inOvercast
6:20 AM44.6 °F44.6 °F100 %29.74 in3.0 miSouth (180°)6.9 mph0.01 inOvercast
6:53 AM45.0 °F45.0 °F100 %29.72 in5.0 miSouth (180°)8.1 mph0.01 inOvercast
7:53 AM45.0 °F45.0 °F100 %29.74 in3.0 miSouth (170°)5.8 mph0.01 inOvercast
8:05 AM44.6 °F44.6 °F100 %29.74 in2.5 miSouth (170°)5.8 mphOvercast
8:27 AM46.4 °F46.4 °F100 %29.77 in1.5 miSSW (200°)3.5 mph0.00 inRainLight Rain
8:48 AM46.4 °F46.4 °F100 %29.76 in2.0 miCalm0.01 inOvercast
8:53 AM46.4 °F46.4 °F100 %29.77 in2.0 miSouth (190°)3.5 mphOvercast
9:05 AM46.4 °F46.4 °F100 %29.77 in3.0 miCalmOvercast
9:15 AM46.4 °F46.4 °F100 %29.77 in2.0 miCalm0.01 inOvercast
9:45 AM46.4 °F46.4 °F100 %29.77 in4.0 miSW (220°)4.6 mph0.01 inOvercast
9:53 AM48.0 °F46.9 °F96 %29.77 in6.0 miSW (230°)4.6 mph0.01 inOvercast
10:08 AM48.2 °F46.4 °F93 %29.78 in10.0 miVariable5.8 mphOvercast
10:53 AM48.9 °F46.0 °F90 %29.79 in10.0 miWest (260°)8.1 mphOvercast
11:53 AM48.9 °F43.0 °F80 %29.79 in10.0 miWest (270°)6.9 mph17.3 mphOvercast
12:53 PM48.0 °F43.0 °F83 %29.81 in10.0 miWSW (250°)8.1 mph18.4 mphOvercast
1:53 PM46.9 °F41.0 °F80 %29.81 in10.0 miWest (270°)8.1 mphOvercast
2:53 PM46.9 °F39.9 °F77 %29.81 in10.0 miWest (260°)8.1 mphOvercast
3:33 PM46.4 °F41.0 °F81 %29.83 in10.0 miWest (270°)8.1 mphOvercast
3:53 PM46.9 °F39.9 °F77 %29.82 in10.0 miWest (260°)9.2 mphOvercast
4:13 PM46.4 °F39.2 °F76 %29.84 in10.0 miWest (270°)8.1 mphOvercast
4:49 PM46.4 °F39.2 °F76 %29.87 in10.0 miNW (320°)13.8 mph19.6 mphOvercast
4:53 PM46.9 °F37.9 °F71 %29.86 in10.0 miNW (310°)15.0 mph20.7 mphOvercast
5:53 PM45.0 °F36.0 °F71 %29.90 in10.0 miWNW (300°)6.9 mphMostly Cloudy
6:34 PM44.6 °F35.6 °F71 %29.93 in10.0 miWNW (300°)5.8 mphOvercast
6:53 PM44.1 °F36.0 °F73 %29.94 in10.0 miNW (310°)5.8 mphOvercast
7:53 PM43.0 °F35.1 °F74 %29.96 in10.0 miNNW (330°)6.9 mphOvercast
8:02 PM42.8 °F33.8 °F70 %29.96 in10.0 miNorth (350°)6.9 mphOvercast
8:53 PM39.0 °F35.1 °F86 %29.96 in10.0 miCalmMostly Cloudy
9:53 PM37.9 °F36.0 °F93 %29.98 in10.0 miCalmOvercast
10:53 PM39.9 °F36.0 °F86 %30.00 in10.0 miCalmOvercast
11:25 PM41.0 °F35.6 °F81 %30.01 in10.0 miWest (280°)4.6 mphOvercast
11:53 PM41.0 °F35.1 °F79 %30.01 in10.0 miCalmOvercast
Hourly data recorded from KRMG, located miles away from Shannon, Georgia







STORIES FROM OUR PARTNERS